This demonstration page uses our WeatherBlox Daily Observations layout. Learn more.

Hourly Observations for August 7, 2019

Temp ( °F °C ) Dew Point ( °F °C ) Humidity (%) Winds ( mph kmh ) Pressure ( in mb ) Visibility ( mi km ) Precip ( " mm )
12:15 am 00:15 Clear 73 23 72 22.2 95 95 SSE 9 15 29.8 1009 10 16.09344 0 0
12:35 am 00:35 Clear 73 23 72 22 94 94 SSE 8 13 29.8 1009 10 16.09344 0 0
12:55 am 00:55 Clear 73 23 72 22 94 94 SE 8 13 29.8 1009 10 16.09344 0 0
1:15 am 01:15 Clear 73 22.9 72 22 95 95 SE 9 15 29.8 1009 10 16.09344 0 0
1:35 am 01:35 Clear 73 22.8 71 21.8 94 94 SE 10 17 29.8 1009 10 16.09344 0 0
1:55 am 01:55 Clear 73 22.7 71 21.6 94 94 SSE 10 17 29.77 1008 10 16.09344 0 0
2:15 am 02:15 Clear 73 22.6 71 21.5 94 94 S 8 13 29.74 1007 10 16.09344 0 0
2:30 am 02:30 Clear 73 22.6 71 21.4 93 93 S 8 13 29.74 1007 10 16.09344 0 0
2:55 am 02:55 Clear 73 22.5 70 21.1 92 92 S 6 9 29.77 1008 10 16.09344 0 0
3:15 am 03:15 Clear 72 22.1 70 21.1 94 94 SE 3 6 29.77 1008 10 16.09344 0 0
3:35 am 03:35 Partly Cloudy 71 21.9 70 21.1 95 95 ENE 22 35 29.85 1011 10 16.09344 0 0
3:55 am 03:55 Partly Cloudy 72 22.1 67 19.5 85 85 ENE 20 31 29.85 1011 10 16.09344 0 0
4:15 am 04:15 Partly Cloudy 69 20.8 65 18.5 87 87 E 14 22 29.85 1011 10 16.09344 0 0
4:35 am 04:35 Clear 67 19.4 62 16.8 85 85 E 23 37 29.88 1012 10 16.09344 0 0
4:55 am 04:55 Clear 65 18.5 61 16.3 87 87 E 17 28 29.88 1012 10 16.09344 0 0
5:15 am 05:15 Clear 65 18.1 61 16.3 89 89 E 13 20 29.88 1012 10 16.09344 0 0
5:35 am 05:35 Clear 64 18 62 16.7 92 92 E 10 17 29.88 1012 10 16.09344 0 0
5:55 am 05:55 Clear 64 17.8 62 16.7 93 93 ESE 7 11 29.88 1012 10 16.09344 0 0
6:15 am 06:15 Clear 64 17.8 62 16.6 93 93 ESE 9 15 29.85 1011 10 16.09344 0 0
6:35 am 06:35 Clear 65 18.2 63 17 93 93 ESE 9 15 29.85 1011 10 16.09344 0 0
6:55 am 06:55 Sunny with Thunderstorms 65 18.2 63 17 93 93 ESE 6 9 29.88 1012 10 16.09344 0 0
7:15 am 07:15 Sunny with Nearby Thunderstorms 65 18.5 63 17.2 92 92 Calm 29.91 1013 10 16.09344 0 0
7:35 am 07:35 Sunny 65 18.5 64 17.5 94 94 Calm 29.91 1013 10 16.09344 0 0
7:55 am 07:55 Partly Cloudy 65 18.2 64 17.6 96 96 N 16 26 29.97 1015 10 16.09344 0 0
8:15 am 08:15 Partly Cloudy 65 18.6 64 17.5 93 93 ENE 7 11 29.94 1014 10 16.09344 0 0
8:35 am 08:35 Sunny 68 20 64 18 88 88 E 7 11 29.91 1013 10 16.09344 0 0
8:55 am 08:55 Sunny 69 20.8 65 18.1 85 85 E 12 19 29.88 1012 10 16.09344 0 0
9:15 am 09:15 Sunny 71 21.5 65 18.1 81 81 ESE 14 22 29.88 1012 10 16.09344 0 0
9:35 am 09:35 Sunny 71 21.8 65 18.1 80 80 SE 14 22 29.85 1011 10 16.09344 0 0
9:55 am 09:55 Sunny 71 21.7 65 18.3 81 81 SE 13 20 29.85 1011 10 16.09344 0 0
10:15 am 10:15 Sunny 73 22.5 65 18.5 78 78 SSE 8 13 29.83 1010 10 16.09344 0 0
10:35 am 10:35 Sunny 74 23.2 66 19 77 77 S 7 11 29.83 1010 10 16.09344 0 0
10:55 am 10:55 Sunny 78 25.6 66 19 67 67 S 12 19 29.83 1010 10 16.09344 0 0
11:15 am 11:15 Sunny 77 25.1 66 18.9 69 69 SSE 10 17 29.83 1010 10 16.09344 0 0
11:35 am 11:35 Partly Cloudy 76 24.6 66 18.9 71 71 S 10 17 29.85 1011 10 16.09344 0 0
11:55 am 11:55 Sunny 76 24.2 66 18.9 72 72 W 7 11 29.88 1012 10 16.09344 0 0
12:15 pm 12:15 Partly Cloudy 75 24 67 19.2 75 75 W 5 7 29.88 1012 10 16.09344 0 0
12:35 pm 12:35 Mostly Cloudy 75 23.7 68 20.1 80 80 SSE 6 9 29.83 1010 10 16.09344 0 0
12:55 pm 12:55 Partly Cloudy 76 24.5 67 19.4 73 73 S 8 13 29.83 1010 10 16.09344 0 0
1:15 pm 13:15 Sunny 77 25.1 67 19.3 70 70 Calm 29.85 1011 10 16.09344 0 0
1:35 pm 13:35 Sunny 80 26.6 67 19.4 65 65 SW 5 7 29.83 1010 10 16.09344 0 0
1:55 pm 13:55 Sunny 81 27.3 67 19.5 62 62 S 8 13 29.8 1009 10 16.09344 0 0
2:15 pm 14:15 Sunny 83 28.1 67 19.6 60 60 SSW 9 15 29.8 1009 10 16.09344 0 0
2:35 pm 14:35 Sunny 83 28.2 65 18.4 55 55 SSW 5 7 29.8 1009 10 16.09344 0 0
2:55 pm 14:55 Sunny 83 28.5 67 19.3 57 57 SE 6 9 29.8 1009 10 16.09344 0 0
3:15 pm 15:15 Sunny 83 28.6 68 20.1 60 60 S 5 7 29.8 1009 10 16.09344 0 0
3:35 pm 15:35 Sunny 84 28.8 68 19.8 58 58 S 5 7 29.8 1009 10 16.09344 0 0
3:55 pm 15:55 Sunny 84 28.7 67 19.6 58 58 S 3 6 29.8 1009 10 16.09344 0 0
4:15 pm 16:15 Sunny 85 29.2 69 20.5 59 59 S 6 9 29.8 1009 10 16.09344 0 0
4:35 pm 16:35 Sunny 85 29.2 68 20.2 58 58 SE 3 6 29.8 1009 10 16.09344 0 0
4:55 pm 16:55 Sunny 85 29.3 68 20.1 58 58 SE 3 6 29.8 1009 10 16.09344 0 0
5:15 pm 17:15 Sunny 85 29.2 69 20.5 59 59 SE 3 6 29.8 1009 10 16.09344 0 0
5:35 pm 17:35 Sunny 85 29.4 68 20.1 57 57 Calm 29.8 1009 10 16.09344 0 0
5:55 pm 17:55 Sunny 85 29.2 70 20.9 61 61 SE 6 9 29.77 1008 10 16.09344 0 0
6:15 pm 18:15 Sunny 84 28.9 70 21 62 62 SE 6 9 29.77 1008 10 16.09344 0 0
6:35 pm 18:35 Sunny 84 28.9 70 21.3 64 64 SE 6 9 29.77 1008 10 16.09344 0 0
6:55 pm 18:55 Sunny 84 28.7 71 21.4 65 65 SSE 5 7 29.77 1008 10 16.09344 0 0
7:15 pm 19:15 Sunny 83 28.5 72 22 68 68 ESE 5 7 29.77 1008 10 16.09344 0 0
7:35 pm 19:35 Sunny 82 27.7 73 22.7 74 74 E 6 9 29.77 1008 10 16.09344 0 0
7:55 pm 19:55 Sunny 81 27.1 73 22.8 77 77 E 6 9 29.77 1008 10 16.09344 0 0
8:15 pm 20:15 Sunny 79 26.2 73 22.6 81 81 E 6 9 29.77 1008 10 16.09344 0 0
8:35 pm 20:35 Sunny 77 25 73 23 89 89 E 5 7 29.83 1010 10 16.09344 0 0
8:55 pm 20:55 Clear 75 23.8 72 22.3 91 91 E 6 9 29.83 1010 10 16.09344 0 0
9:15 pm 21:15 Clear 75 24 73 22.5 91 91 E 6 9 29.83 1010 10 16.09344 0 0
9:35 pm 21:35 Clear 75 23.7 73 22.5 93 93 E 6 9 29.83 1010 10 16.09344 0 0
9:55 pm 21:55 Clear 75 23.7 73 22.5 93 93 E 7 11 29.83 1010 10 16.09344 0 0
10:15 pm 22:15 Clear 74 23.4 72 22.1 92 92 E 7 11 29.85 1011 10 16.09344 0 0
10:35 pm 22:35 Clear with Mist and Fog 73 22.8 71 21.8 94 94 E 7 11 29.85 1011 5 8.04672 0 0
10:55 pm 22:55 Clear 72 22.3 71 21.5 95 95 ESE 5 7 29.88 1012 10 16.09344 0 0
11:15 pm 23:15 Clear 72 22.1 71 21.5 96 96 E 5 7 29.88 1012 10 16.09344 0 0
11:35 pm 23:35 Clear 72 22.3 71 21.7 96 96 ESE 6 9 29.88 1012 10 16.09344 0 0
11:55 pm 23:55 Clear 72 22.1 71 21.7 98 98 E 6 9 29.85 1011 10 16.09344 0 0

Powered by AerisWeather